AO-07 1 07530U 74089B 26207.65539451 -.00000025 00000-0 13291-3 0 9995 2 07530 101.9910 221.3137 0012589 57.0910 60.8894 12.53698736365463 UO-11 1 14781U 84021B 26207.48548143 .00001537 00000-0 16152-3 0 9994 2 14781 97.8085 172.6298 0009007 60.3052 299.9062 14.90875642262987 LO-19 1 20442U 90005G 26207.60113664 .00000133 00000-0 64296-4 0 9998 2 20442 98.8847 230.4912 0012691 90.8527 269.4111 14.34133549908041 AO-27 1 22825U 93061C 26207.15707977 .00000099 00000-0 54836-4 0 9996 2 22825 98.6860 274.5521 0008122 354.1253 5.9833 14.30951411712579 FO-29 1 24278U 96046B 26207.12567699 -.00000028 00000-0 85705-5 0 9991 2 24278 98.5211 50.6601 0349812 355.5933 4.2151 13.53275845478431 GO-32 1 25397U 98043D 26207.47061429 .00000073 00000-0 51645-4 0 9995 2 25397 99.0094 201.2247 0002367 96.9090 263.2358 14.24435228456928 ISS 1 25544U 98067A 26207.41084145 .00010751 00000-0 20166-3 0 9996 2 25544 51.6317 105.9876 0006941 339.4731 20.5977 15.49181604577830 NO-44 1 26931U 01043C 26207.55193829 .00000136 00000-0 81588-4 0 9992 2 26931 67.0508 142.4563 0005816 267.5976 92.4460 14.31968912296080 SO-50 1 27607U 02058C 26207.60222235 .00001326 00000-0 17299-3 0 9999 2 27607 64.5527 7.0278 0074185 255.1735 104.1145 14.83120492270302 CO-55 1 27844U 03031E 26205.97080695 .00000297 00000-0 14722-3 0 9998 2 27844 98.6748 214.0560 0010828 77.5978 282.6412 14.24356508197054 RS-22 1 27939U 03042A 26207.66525701 .00000622 00000-0 10394-3 0 9998 2 27939 98.3482 33.1435 0012052 138.2239 280.9913 14.73530715221365 CO-65 1 32785U 08021C 26207.62085334 .00005484 00000-0 34341-3 0 9993 2 32785 97.8302 189.8756 0006925 250.6034 109.4446 15.09791439991142 CO-66 1 32791U 08021J 26207.48531490 .00020095 00000-0 61220-3 0 9994 2 32791 97.7527 207.3005 0004185 140.7289 219.4257 15.34010294993311 RS-30 1 32953U 08025A 26207.61320606 -.00000073 00000-0 -59811-3 0 9997 2 32953 82.5065 330.9157 0018965 222.8714 137.0889 12.43180841824599 SRMSAT 1 37841U 11058D 26207.02669267 .00000372 00000-0 58230-4 0 9997 2 37841 19.9703 184.3803 0011523 271.2245 137.1248 14.11582893763314 ZACUBE-1 1 39417U 13066B 26207.33157887 .00004180 00000-0 32239-3 0 9994 2 39417 97.7984 169.8565 0043982 119.6671 240.8943 15.01388194686603 Delfi-N3xt 1 39428U 13066N 26207.25874888 .00008448 00000-0 72516-3 0 9997 2 39428 97.8313 127.5384 0075924 77.0618 283.9068 14.95481770680461 GOMX-1 1 39430U 13066Q 26207.61007471 .00001415 00000-0 21837-3 0 9993 2 39430 97.6469 45.5861 0127234 311.3440 47.6876 14.69566045675705 LO-74 1 39440U 13066AA 26207.58109536 .00003181 00000-0 29500-3 0 9992 2 39440 97.8910 156.7382 0055647 256.5609 102.9405 14.94027333682876 AO-73 1 39444U 13066AE 26207.62516650 .00008547 00000-0 52176-3 0 9996 2 39444 97.8293 179.9131 0037821 70.7989 289.7326 15.09962313685618 DTUSAT-2 1 40030U 14033W 26207.46382707 .00007367 00000-0 39264-3 0 9992 2 40030 98.0881 207.7017 0009763 100.1203 260.1129 15.15479334658630 LILACSAT-2 1 40908U 15049K 26207.60000772 .00019527 00000-0 31719-3 0 9997 2 40908 97.4626 245.9663 0008678 108.3382 251.8816 15.52717203601861 Lapan A3 1 41603U 16040E 26207.61081939 .00003447 00000-0 10924-3 0 9996 2 41603 97.1509 202.4719 0008694 226.1179 133.9347 15.33337049560859 CAS-2T 1 41847U 16066G 26207.16238672 .00000805 00000-0 12157-3 0 9997 2 41847 98.3807 282.4526 0341613 11.5185 349.3577 14.44785686510422 TechnoSat 1 42829U 17042E 26207.34189677 .00002507 00000-0 17964-3 0 9995 2 42829 97.4317 3.5249 0016491 324.6170 35.3962 15.05157772492592 AO-91 1 43017U 17073E 26207.62597012 .00007880 00000-0 34059-3 0 9999 2 43017 97.4660 74.0376 0148801 191.7242 168.0512 15.13201425471351 S-Net D 1 43186U 18014G 26207.64691994 .00004851 00000-0 24880-3 0 9994 2 43186 97.5321 112.1924 0006447 233.8646 126.1991 15.17006963464746 S-Net B 1 43187U 18014H 26207.59319275 .00004938 00000-0 25336-3 0 9991 2 43187 97.5327 112.1267 0007176 229.3351 130.7259 15.16976032464735 S-Net A 1 43188U 18014J 26207.64558146 .00004751 00000-0 24364-3 0 9993 2 43188 97.5336 112.3951 0007068 229.8515 130.2100 15.17014793464744 S-Net C 1 43189U 18014K 26207.59728798 .00005007 00000-0 25688-3 0 9995 2 43189 97.5355 112.4279 0008560 222.9449 137.1116 15.16966807463280 Ten-Koh 1 43677U 18084G 26207.33589960 .00002308 00000-0 17595-3 0 9991 2 43677 98.0770 41.3502 0009160 359.3960 0.7251 15.03090445422044 PO-101 1 43678U 18084H 26207.58025058 .00001810 00000-0 14837-3 0 9995 2 43678 98.1222 45.5171 0012029 48.8551 311.3708 15.00598105422120 QO-100 1 43700U 18090A 26207.54009912 .00000000 00000-0 00000-0 0 9999 2 43700 0.0266 70.0123 0002480 86.4343 8.0056 1.00269525 28071 MinXSS-2 1 43758U 18099A 26207.19431630 .00044445 00000-0 80256-3 0 9993 2 43758 97.4516 284.6932 0008714 125.9906 234.2155 15.49563073420165 AO-95 1 43770U 18099N 26207.13093367 .00012306 00000-0 45977-3 0 9994 2 43770 97.4370 267.2484 0008288 197.7474 162.3477 15.27476644419168 SNUSat 2 1 43782U 18099AA 26207.38282965 .00008545 00000-0 37225-3 0 9995 2 43782 97.4041 260.1729 0011266 150.8546 209.3322 15.22390054418996 SnugLite 1 43784U 18099AC 26207.11920470 .00012127 00000-0 44672-3 0 9993 2 43784 97.3853 261.0312 0004366 133.3720 226.7884 15.27967438419267 ITASat 1 1 43786U 18099AE 26207.60500646 .00007186 00000-0 34098-3 0 9998 2 43786 97.4012 258.3359 0011803 206.8066 153.2561 15.19504743418891 EAGLET 1 1 43790U 18099AJ 26207.60004506 .00004409 00000-0 25163-3 0 9995 2 43790 97.4214 256.2258 0010500 200.6447 159.4361 15.13208112418298 ESEO 1 43792U 18099AL 26207.62546570 .00001610 00000-0 11946-3 0 9996 2 43792 97.3962 243.3237 0011604 189.1949 170.9067 15.04357204417733 JO-97 1 43803U 18099AX 26207.61917303 .00018958 00000-0 56213-3 0 9993 2 43803 97.4110 270.6174 0007340 124.9805 235.2128 15.34854465419677 Suomi 100 1 43804U 18099AY 26207.60763557 .00013939 00000-0 49217-3 0 9993 2 43804 97.4170 267.8716 0011333 135.9386 224.2759 15.29275009419445 ISAT 1 43879U 18111D 26207.31783308 .00154679 00000-0 10982-2 0 9997 2 43879 97.5837 145.7798 0008892 123.8319 236.3792 15.73400287417301 UWE-4 1 43880U 18111E 26207.34078271 .00036326 00000-0 68322-3 0 9998 2 43880 97.5835 137.6029 0008137 157.9583 202.2018 15.48445894416836 Sparrow 1 43881U 18111F 26206.60003763 .00380888 56607-4 12274-2 0 9998 2 43881 97.6072 151.5203 0009567 142.0597 218.1351 15.90807699417444 Prox-1 1 44339U 19036A 26207.34038110 .00013171 00000-0 12561-2 0 9999 2 44339 23.9927 212.5300 0006472 128.4555 231.6526 14.91456183379320 Taurus 1 1 44530U 19059C 26207.59262332 .00005257 00000-0 83657-3 0 9990 2 44530 98.6444 14.8835 0008869 179.6020 180.5194 14.72468822364441 TO-108 1 44881U 19093C 26207.62375221 .00001340 00000-0 15702-3 0 9998 2 44881 97.7518 278.8910 0012541 322.9303 37.1045 14.86576233357273 RS-44 1 44909U 19096E 26207.32984857 -.00000005 00000-0 -67896-4 0 9991 2 44909 82.5246 313.6980 0218281 53.0731 309.0147 12.79748870307351 SALSAT 1 46495U 20068K 26207.58081109 .00007851 00000-0 27023-3 0 9991 2 46495 97.8863 213.0615 0010436 154.3892 205.7866 15.30310578321389 CSS (TIANHE-1) 1 48274U 21035A 26205.70067244 .00011455 00000-0 15064-3 0 9996 2 48274 41.4690 94.2105 0001496 308.5106 51.5598 15.58352000299029 CUTE 1 49263U 21088D 26197.83813593 .08921004 25505-5 41832-3 0 9995 2 49263 97.3907 300.4441 0014216 277.7997 82.1689 16.41647044267308 TeikyoSat 4 1 49396U 21102B 26207.62710760 .00002293 00000-0 14612-3 0 9996 2 49396 97.3661 235.5770 0012845 150.2759 209.9203 15.09633535258676 Z-Sat 1 49399U 21102E 26207.60669655 .00003203 00000-0 15768-3 0 9998 2 49399 97.3319 241.7354 0018442 107.9812 252.3435 15.18538847259427 KOSEN 1 1 49402U 21102H 26207.58819804 .00008506 00000-0 31912-3 0 9993 2 49402 97.3172 248.9879 0015153 72.1083 288.1807 15.27358538260035 HO-113 1 50466U 21131B 26207.62306590 .00000595 00000-0 19722-3 0 9990 2 50466 98.4986 299.8001 0003809 359.2411 0.8772 14.41390550240799 SNUGLITE 2 1 52899U 22065F 26207.66179869 .00001094 00000-0 21594-3 0 9995 2 52899 98.2250 352.4343 0006186 257.3805 102.6706 14.64412400216777 UmKA 1 (RS40S) 1 57172U 23091G 26207.63176479 .00006401 00000-0 28937-3 0 9990 2 57172 97.5032 266.1823 0011877 349.7528 10.3463 15.21229305170005 CubeBel-2 (EU11S) 1 57175U 23091K 26207.63058440 .00013249 00000-0 45726-3 0 9993 2 57175 97.5033 271.2195 0008341 344.7637 15.3351 15.30061899170335 RS-38S 1 57189U 23091Z 26207.61022496 .00018142 00000-0 49973-3 0 9993 2 57189 97.5077 277.9138 0005198 288.2675 71.8003 15.37189494170744 SONATE-2 1 59112U 24043Q 26207.32611125 .00046537 00000-0 53949-3 0 9997 2 59112 97.5560 0.2212 0006146 68.4040 291.7872 15.61657503133998 GRBBeta 1 60237U 24128C 26207.63968811 .00004058 00000-0 28111-3 0 9997 2 60237 61.9901 77.8224 0035455 143.2778 217.0755 15.06877236112219 Curium One 1 60242U 24128H 26207.16902248 .00008131 00000-0 46363-3 0 9998 2 60242 61.9789 67.6560 0035017 138.8561 221.5185 15.13002783112350 ROBUSTA-3A 1 60243U 24128J 26207.35460928 .00008698 00000-0 50653-3 0 9999 2 60243 61.9865 69.6892 0036490 136.4889 223.9096 15.12127063112343 CatSat 1 60246U 24125J 26207.11243279 .00081773 00000-0 86728-3 0 9998 2 60246 97.2048 60.2543 0018513 43.9572 316.3156 15.63620476113468 HYPERVIEW-1G (RS66S) 1 61772U 24199AP 26207.64854037 .00318376 39747-4 10142-2 0 9994 2 61772 97.2759 89.7397 0008046 133.5723 226.6220 15.91061104140912 AO-123 1 61781U 24199AY 26207.58013519 .00008226 00000-0 23472-3 0 9996 2 61781 97.2952 75.8995 0014269 159.8044 200.3768 15.36196521139979 JINJUSat 1B 1 63210U 25052A 26207.21703976 .00017838 00000-0 53282-3 0 9998 2 63210 97.3957 104.0473 0001693 352.4693 7.6524 15.34659330 76088 NUSHSAT 1 1 63211U 25052B 26207.25927678 .00023530 00000-0 64210-3 0 9999 2 63211 97.3932 104.7979 0001629 14.7812 345.3480 15.37435010 76140 TEVEL2-4 1 63213U 25052D 26207.61412794 .00021708 00000-0 62190-3 0 9999 2 63213 97.3853 104.0978 0002207 30.7869 329.3504 15.35932267 76164 TEVEL2-5 1 63214U 25052E 26207.50899409 .00020791 00000-0 59960-3 0 9992 2 63214 97.3852 103.9287 0002366 34.2661 325.8735 15.35732988 76143 TEVEL2-6 1 63215U 25052F 26207.19643220 .00020212 00000-0 58389-3 0 9998 2 63215 97.3856 103.5999 0002354 35.3419 324.7981 15.35685489 76092 TEVEL2-1 1 63217U 25052H 26207.63073107 .00019258 00000-0 56653-3 0 9990 2 63217 97.3830 103.6110 0003100 35.3087 324.8361 15.35121104 76141 TEVEL2-3 1 63218U 25052J 26207.23272997 .00019313 00000-0 56723-3 0 9995 2 63218 97.3836 103.2399 0002915 40.8705 319.2757 15.35171843 76089 TEVEL2-2 1 63219U 25052K 26207.63077475 .00019384 00000-0 57003-3 0 9994 2 63219 97.3830 103.6142 0003060 36.3879 323.7572 15.35132626 76146 TEVEL2-9 1 63237U 25052AD 26207.26879143 .00017764 00000-0 55803-3 0 9991 2 63237 97.3897 102.5393 0006469 25.3022 334.8536 15.33039591 76013 TEVEL2-7 1 63238U 25052AE 26207.64400259 .00017666 00000-0 56041-3 0 9998 2 63238 97.3891 102.8132 0006493 24.0710 336.0835 15.32727776 76068 TEVEL2-8 1 63239U 25052AF 26207.26091252 .00017660 00000-0 56069-3 0 9990 2 63239 97.3894 102.4062 0006562 25.3469 334.8093 15.32701286 76006 SPIRONE 1 66657U 25274H 26207.51272713 .00002058 00000-0 19979-3 0 9998 2 66657 97.7468 136.2445 0010481 240.1464 119.8714 14.93691822 36097 K-HERO 1 66660U 25274L 26207.30558725 .00001998 00000-0 19210-3 0 9999 2 66660 97.7479 136.2300 0012291 246.3320 113.6611 14.94096658 36076 SNUGLITE-III DURI 1 66661U 25274M 26207.15858571 .00002054 00000-0 19720-3 0 9995 2 66661 97.7475 136.1058 0012944 247.8856 112.0990 14.94119643 36058 SAKHACUBE-CHOLBON 1 67290U 25313AU 26207.19614401 .00009807 00000-0 38913-3 0 9992 2 67290 97.3920 281.7565 0008551 207.7846 152.2936 15.25531215 31926 RS95S (QMR-KWT-2) 1 67291U 25313AV 26207.47240529 .00015196 00000-0 57099-3 0 9994 2 67291 97.3921 282.2949 0008414 203.4350 156.6507 15.27234241 31980 Ten-Koh2 1 68261U 25241B 26207.48913825 .00007213 00000-0 30453-3 0 9995 2 68261 51.6557 132.5239 0004880 268.3089 91.7330 15.24287706 20901 JACK-002 1 68417U 26067B 26207.34100444 .00006680 00000-0 31476-3 0 9998 2 68417 97.4583 165.4649 0003741 114.9646 245.1978 15.19830726 17898 DISCO 2 1 68431U 26067R 26207.30317209 .00008750 00000-0 41385-3 0 9999 2 68431 97.4617 165.4180 0001909 154.0950 206.0380 15.19611798 17887 HADES-SA (SpinnyONE) 1 68446U 26067AG 26207.33323031 .00019479 00000-0 89733-3 0 9997 2 68446 97.4412 165.0825 0004368 317.3995 42.6901 15.20319308 17879 PARUS-6U1 1 68456U 26067AS 26207.35123326 .00006086 00000-0 30346-3 0 9991 2 68456 97.4571 165.1280 0003670 298.3022 61.7841 15.17894597 17875 SAL-E 1 68458U 26067AU 26207.33859026 .00007833 00000-0 38530-3 0 9998 2 68458 97.4499 165.0313 0003964 313.7477 46.3428 15.18278570 17872 FSI-SAT 2 1 68792U 26088A 26207.19594476 .00003780 00000-0 25534-3 0 9998 2 68792 97.5110 355.4934 0013506 340.7932 19.2784 15.07110967 14163 OrigamiSat 2 1 68795U 26088D 26207.34800432 .00012110 00000-0 75663-3 0 9995 2 68795 97.5110 355.9066 0013471 306.0642 53.9338 15.09531475 14209 ARICA 2 1 68796U 26088E 26207.36228889 .00004970 00000-0 32023-3 0 9996 2 68796 97.5101 355.8723 0014349 307.1906 52.8012 15.08700660 14209 WASEDA-SAT-ZERO-II 1 68797U 26088F 26207.61612784 .00006382 00000-0 40630-3 0 9998 2 68797 97.5100 356.1442 0013952 305.8177 54.1754 15.09034896 14249 MANGARO-II-Piscus 1 68798U 26088G 26207.33955994 .00003687 00000-0 23627-3 0 9993 2 68798 97.5112 355.9122 0017540 310.0524 49.9166 15.09030828 14202 IO-86 1 40931U 25360.30710720 .00000000 00000-0 12800-3 0 00 2 40931 6.0006 332.5373 0012733 338.8432 8.1437 14.79075515 01 LILIUM-4 1 71922C 26067AC 26089.50133053 -.00014632 00000 0 -74472-3 0 04 2 71922 97.4497 49.1617 0004341 5.9603 355.7042 15.16896692 16